N6EQ Weather Reports


Display with metric or nautical units.
time (UTC)temp
F
wind
direction
speed
MPH
gust
MPH
rain 1hr
in
rain 24hr
in
rain mn
in
humidity
%
barometer
mb
20260906074541 90 0.0 0.0 0.00 0.00 0.00 30 950.3
20260906073033 89 0.0 0.0 0.00 0.00 0.00 30 950.3
20260906071535 89 0.0 0.0 0.00 0.00 0.00 30 950.4
20260906070028 89 0.0 0.0 0.00 0.00 0.00 29 950.5
20260906064528 89 0.0 0.0 0.00 0.00 0.00 29 950.4
20260906063027 90 0.0 0.0 0.00 0.00 0.00 29 950.4
20260906061527 90 0.0 0.0 0.00 0.00 0.00 29 950.3
20260906060126 90 0.0 0.0 0.00 0.00 0.00 28 950.4
20260906054530 91 0.0 7.0 0.00 0.00 0.00 27 950.5
20260906053031 90 0.0 2.0 0.00 0.00 0.00 27 950.4
20260906051524 90 0.0 4.0 0.00 0.00 0.00 27 950.5
20260906050032 91 0.0 1.0 0.00 0.00 0.00 26 950.4
20260906044534 91 94 0.0 1.0 0.00 0.00 0.00 26 950.5
20260906043022 93 177 1.0 7.0 0.00 0.00 0.00 25 950.3
20260906041521 93 144 5.0 10.0 0.00 0.00 0.00 25 950.2
20260906040028 94 151 5.0 11.0 0.00 0.00 0.00 25 950.2
20260906034523 94 167 3.0 8.0 0.00 0.00 0.00 25 950.0
20260906033035 94 172 3.0 8.0 0.00 0.00 0.00 25 950.0
20260906031518 94 158 6.0 12.0 0.00 0.00 0.00 24 949.7
20260906030019 95 143 5.0 9.0 0.00 0.00 0.00 24 949.6
20260906024517 95 175 6.0 10.0 0.00 0.00 0.00 24 949.4
20260906023017 95 143 6.0 14.0 0.00 0.00 0.00 24 949.3
20260906021516 96 134 6.0 11.0 0.00 0.00 0.00 24 949.2
20260906020015 96 158 9.0 15.0 0.00 0.00 0.00 24 949.2
20260906014515 97 133 7.0 12.0 0.00 0.00 0.00 23 949.3
20260906013014 98 168 5.0 14.0 0.00 0.00 0.00 23 949.4
20260906011513 98 184 9.0 16.0 0.00 0.00 0.00 23 949.4
20260906010014 99 176 11.0 17.0 0.00 0.00 0.00 23 949.4
20260906004512 99 14.0 20.0 0.00 0.00 0.00 23 949.4
20260906003010 100 196 4.0 20.0 0.00 0.00 0.00 22 949.4
20260906001509 100 158 11.0 21.0 0.00 0.00 0.00 22 949.4
20260906000009 101 203 8.0 19.0 0.00 0.00 0.00 20 949.3
20260905234508 101 229 8.0 21.0 0.00 0.00 0.00 19 949.2
20260905233007 100 219 10.0 22.0 0.00 0.00 0.00 19 949.2
20260905231508 101 223 11.0 26.0 0.00 0.00 0.00 19 949.3
20260905230005 101 236 11.0 18.0 0.00 0.00 0.00 18 949.4
20260905224505 101 212 6.0 23.0 0.00 0.00 0.00 18 949.6
20260905223003 101 191 7.0 24.0 0.00 0.00 0.00 18 949.6
20260905221503 101 214 9.0 21.0 0.00 0.00 0.00 17 950.0
20260905220002 101 200 7.0 20.0 0.00 0.00 0.00 17 949.9
20260905214601 101 188 9.0 19.0 0.00 0.00 0.00 18 950.1
20260905213059 100 210 13.0 20.0 0.00 0.00 0.00 18 950.3
20260905211629 100 205 13.0 24.0 0.00 0.00 0.00 18 950.5
20260905210057 99 231 11.0 22.0 0.00 0.00 0.00 17 950.6
20260905204558 99 224 7.0 19.0 0.00 0.00 0.00 16 950.8
20260905203114 99 204 13.0 22.0 0.00 0.00 0.00 16 951.0
20260905201552 98 158 9.0 21.0 0.00 0.00 0.00 16 951.4
20260905200056 97 235 7.0 22.0 0.00 0.00 0.00 16 951.6
20260905194547 97 195 9.0 20.0 0.00 0.00 0.00 16 951.8
20260905193047 96 210 11.0 18.0 0.00 0.00 0.00 16 951.9
20260905191546 96 161 7.0 19.0 0.00 0.00 0.00 16 952.0
20260905190043 96 11.0 16.0 0.00 0.00 0.00 16 952.0
20260905184541 95 231 7.0 15.0 0.00 0.00 0.00 16 952.2
20260905183038 94 3.0 14.0 0.00 0.00 0.00 16 952.3
20260905181552 93 212 1.0 13.0 0.00 0.00 0.00 16 952.5
20260905180035 93 226 4.0 18.0 0.00 0.00 0.00 17 952.5
20260905174541 92 223 2.0 14.0 0.00 0.00 0.00 17 952.4
20260905173033 92 214 4.0 13.0 0.00 0.00 0.00 17 952.4
20260905171538 91 225 0.0 5.0 0.00 0.00 0.00 18 952.4
20260905170027 89 217 0.0 6.0 0.00 0.00 0.00 18 952.5
20260905164530 88 207 0.0 5.0 0.00 0.00 0.00 18 952.4
20260905163023 87 233 0.0 5.0 0.00 0.00 0.00 18 952.4
20260905161523 87 0.0 5.0 0.00 0.00 0.00 18 952.4
20260905160032 87 241 0.0 0.0 0.00 0.00 0.00 17 952.3
20260905154521 85 0.0 0.0 0.00 0.00 0.00 18 952.3
20260905153022 85 0.0 0.0 0.00 0.00 0.00 18 952.1
20260905151517 85 241 0.0 0.0 0.00 0.00 0.00 17 952.0
20260905150015 86 209 0.0 0.0 0.00 0.00 0.00 17 952.1
20260905144514 85 95 0.0 0.0 0.00 0.00 0.00 17 951.9
20260905143013 83 92 0.0 0.0 0.00 0.00 0.00 18 951.9
20260905141510 82 117 0.0 0.0 0.00 0.00 0.00 18 951.7
20260905140009 81 119 0.0 0.0 0.00 0.00 0.00 18 951.4
20260905134506 81 119 0.0 0.0 0.00 0.00 0.00 18 951.2
20260905133005 80 114 0.0 0.0 0.00 0.00 0.00 18 950.9
20260905131606 82 131 0.0 0.0 0.00 0.00 0.00 18 950.6
20260905130059 82 120 0.0 0.0 0.00 0.00 0.00 17 950.4
20260905124558 82 118 0.0 0.0 0.00 0.00 0.00 17 950.3
20260905123055 81 120 0.0 0.0 0.00 0.00 0.00 17 950.2
20260905121557 82 115 0.0 0.0 0.00 0.00 0.00 17 950.1
20260905120114 82 121 0.0 0.0 0.00 0.00 0.00 17 950.2
20260905114555 82 121 0.0 0.0 0.00 0.00 0.00 17 950.2
20260905113054 81 125 0.0 0.0 0.00 0.00 0.00 18 950.2
20260905111608 81 124 0.0 0.0 0.00 0.00 0.00 17 950.2
20260905110055 81 91 0.0 0.0 0.00 0.00 0.00 16 950.1
20260905104548 82 122 0.0 0.0 0.00 0.00 0.00 16 950.2
20260905103050 82 123 0.0 0.0 0.00 0.00 0.00 16 950.2
20260905101544 83 143 0.0 0.0 0.00 0.00 0.00 16 950.1
20260905100046 83 152 0.0 0.0 0.00 0.00 0.00 15 950.0
20260905094541 83 151 0.0 0.0 0.00 0.00 0.00 15 950.1
20260905093039 83 131 0.0 0.0 0.00 0.00 0.00 15 949.9
20260905091610 83 141 0.0 0.0 0.00 0.00 0.00 14 949.9
20260905090036 84 150 0.0 0.0 0.00 0.00 0.00 14 949.8
20260905084534 85 218 0.0 0.0 0.00 0.00 0.00 14 949.9
20260905083032 85 107 0.0 0.0 0.00 0.00 0.00 14 949.9
20260905081529 85 171 0.0 0.0 0.00 0.00 0.00 14 949.8
20260905080036 86 152 0.0 0.0 0.00 0.00 0.00 13 949.8